{"data":{"norad_id":61862,"epoch":"2026-05-25T00:57:15.410016Z","epoch_age_seconds":75573,"freshness":"FRESH","line1":"1 61862U 24202T   26145.03976169  .00000431  00000+0  25191-4 0  9991","line2":"2 61862  43.0016 166.8701 0001465 291.7662  68.3034 15.27574673 87014","mean_motion":15.27574673,"eccentricity":0.0001465,"inclination_deg":43.0016,"raan_deg":166.8701,"arg_perigee_deg":291.7662,"mean_anomaly_deg":68.3034,"bstar":2.5191e-5,"rev_number":8701,"period_min":94.267077443225,"perigee_km":482.05988094049,"apogee_km":484.07021314028,"semimajor_km":6861.2020470404,"source":"CELESTRAK","updated_at":"2026-05-25T13:38:19.453204Z"}}